Regional Weather Roundup
Issued by NWS Newport/Morehead, NC

Current Version | Previous Version | Text Only | Print | Product List | Glossary On
Versions: 1 2 3 4 5 6 7 8 9 10 11 12 13 14 15 16 17 18 19 20 21 22 23 24 25 26 27 28 29 30 31 32 33 34 35 36 37 38 39 40 41 42 43 44 45 46 47 48 49 50
000
ASUS42 KMHX 300413
RWRMHX
WEATHER ROUNDUP FOR EASTERN NORTH CAROLINA
NATIONAL WEATHER SERVICE NEWPORT/MOREHEAD CITY NC
1200 AM EDT SAT JUL 30 2016

NOTE: "FAIR" INDICATES FEW OR NO CLOUDS BELOW 12,000 FEET
WITH NO SIGNIFICANT WEATHER AND/OR OBSTRUCTIONS TO VISIBILITY

NCZ015>017-031-032-045>047-102-103-300500-
NORTH COAST

CITY           SKY/WX    TMP DP  RH WIND       PRES   REMARKS
EDENTON        CLEAR     78  78 100 CALM      29.96S
ELIZABETH CITY CLEAR     76  73  91 CALM      29.96R
KITTY HAWK     CLEAR     78  78 100 CALM      29.95R
MANTEO           N/A     78  77  97 CALM      29.96R

$$

NCZ045>047-081-094-103-104-300500-
CENTRAL COAST

CITY           SKY/WX    TMP DP  RH WIND       PRES   REMARKS
FRISCO         PTCLDY    80  75  84 SW3       29.95R

$$

NCZ095-097-098-100-101-300500-
SOUTHERN COAST

CITY           SKY/WX    TMP DP  RH WIND       PRES   REMARKS
BEAUFORT       MOCLDY    83  80  91 W7        29.95S
CEDAR ISLAND   NOT AVBL
JACKSONVILLE   CLEAR     81  75  82 CALM      29.95S
PINEY ISLAND   NOT AVBL
WILMINGTON     CLEAR     82  78  88 S3        29.95F


$$

NCZ011>013-027>030-043-044-078>080-089-090>093-098-300500-
COASTAL PLAIN

CITY           SKY/WX    TMP DP  RH WIND       PRES   REMARKS
AHOSKIE        CLEAR     74  73  97 CALM      29.96S
CLINTON        CLEAR     78  74  88 CALM      29.96S
ELIZABETHTOWN  MOCLDY    83  75  77 CALM      29.95F
GOLDSBORO      CLEAR     78  76  94 E2        29.94S
GREENVILLE     CLEAR     77  77 100 CALM      29.97F
HAVELOCK       CLEAR     79  76  90 SW5       29.96S
KENANSVILLE    NOT AVBL
KINSTON        CLEAR     77  73  85 CALM      29.96F
NEW BERN       CLEAR     79  75  87 CALM      29.96F
RICHLANDS      CLEAR     77  74  90 CALM      29.96F
ROCKY MOUNT    CLEAR     76  75  97 CALM      29.96S
WASHINGTON     CLEAR     77  74  92 CALM      29.95S
WHITEVILLE     CLOUDY    80  76  86 SW8       29.96R

$$

AMZ130-135-150-152-154-156-158-170-250-252-270-ANZ085-086-088-633-658-670-300500-
MARINE OBSERVATIONS

STATION/POSITION TIME  TEMP    WIND        PRES    WAVE   SWELL
                       AIR SEA DIR/SP/G            HT/PER HT/PER
                 (UTC) (F)     (DEG/KT/KT) (MB)    (FT/S) (FT/S)
CHESAPEAKE LIGHT NOT AVBL
64 E VA BEACH    0350   81 83   70/  6/  8 1013.7    2/ 6   2/ 6
DUCK             0300      75              1013.5
2 E DUCK         0311      79                N/A     1/14
OREGON INLET     0300      76              1014.0
13E OREGON INLT  0400      79                N/A     2/ 6   2/ 5
HATTERAS CG      0300      84              1013.5
DIAMOND BUOY     0350   83 85  240/  4/  6 1014.3    4/ 6   3/ 6
CAPE LOOKOUT     0400   83     240/  8/ 10 1014.0
BEAUFORT LAB     0300      83              1013.7
30 SE NEW RVR IN 0308   85 85  240/ 14/ 17 1014.6
30 SE NEW RVR IN 0325      85                N/A     4/ 5
27 SE WRIGHTSVLE 0308   85 84  230/ 12/ 16 1015.0
5 SE WRIGHTSVLE  0308   81 80  240/  4/  6 1015.5
225 S CAPE HAT   0350   84 85  220/ 10/ 12 1016.6    4/ 7   3/ 7
41 SE CHARLESTON 0350   86 86  210/ 16/ 17 1014.5    3/ 5   2/ 8

$$



USA.gov is the U.S. government's official web portal to all federal, state and local government web resources and services.